Regional Weather Roundup
Issued by NWS

Home | Current Version | Previous Version | Graphics & Text | Print | Product List | Glossary On
Versions: 1 2 3 4 5 6 7 8 9 10 11 12 13 14 15 16 17 18 19 20 21 22 23 24 25 26 27 28 29 30 31 32 33 34 35 36 37 38 39 40 41 42 43 44 45 46 47 48 49 50
000
ASUS43 KDTX 041310
RWRMI
MICHIGAN HOURLY REGIONAL WEATHER ROUNDUP
NATIONAL WEATHER SERVICE DETROIT/PONTIAC MI
800 AM EST WED MAR 04 2015

NOTE: "FAIR" INDICATES FEW OR NO CLOUDS BELOW 12,000 FEET WITH NO
SIGNIFICANT WEATHER AND/OR OBSTRUCTION TO VISIBILITY.

MIZ047>049-052>055-059>063-066>070-074>076-081>083-041400-
SOUTHEAST LOWER MICHIGAN

CITY           SKY/WX    TMP DP  RH WIND       PRES   REMARKS
ADRIAN         CLOUDY    30  23  75 W7        29.93R
ALMA           PTCLDY    24  18  77 W9        29.90R
ANN ARBOR      CLOUDY    30  23  75 W7        29.91R
BAD AXE        CLOUDY    26  21  80 W8        29.86R
DETROIT CITY   CLOUDY    33  22  63 W7        29.91R
DETROIT        CLOUDY    32  23  69 W7        29.92R
FLINT          CLOUDY    30  21  69 W8        29.90R
GROSSE ILE     CLOUDY    30  25  80 SW6       29.91R
HILLSDALE      CLOUDY    30  25  82 W8        29.90R
HOWELL         CLOUDY    29  21  71 W7        29.88S

CITY           SKY/WX    TMP DP  RH WIND       PRES   REMARKS
JACKSON        CLOUDY    29  22  75 W8        29.90R
LAMBERTVILLE   CLOUDY    32  27  80 W5        29.93R
LANSING        CLOUDY    28  21  75 W9        29.92R HAZE
LAPEER         NOT AVBL
MASON          PTCLDY    28  22  76 W8        29.90R
MONROE         CLOUDY    30  25  80 W6        29.91R
MT. CLEMENS    CLOUDY    31  23  72 W6        29.88R
PONTIAC        CLOUDY    28  22  78 W7        29.87R
PORT HOPE        N/A     25  18  74 W6        29.85R
PORT HURON     CLOUDY    28  23  80 W3        29.90R
TRI CITIES     PTCLDY    23  16  74 W8        29.90R
YPSILANTI      CLOUDY    33  23  66 W8        29.92R
$$
MIZ043>046-050>051-056>058-064>065-071>073-077>080-041400-
SOUTHWEST LOWER MICHIGAN

CITY           SKY/WX    TMP DP  RH WIND       PRES   REMARKS
BATTLE CREEK   CLOUDY    29  20  69 NW12      29.92R
BENTON HARBOR  CLOUDY    26  19  74 NW9       29.99R
BIG RAPIDS     CLOUDY    21  17  84 W5        29.88R
COLDWATER      CLOUDY    29  24  82 W6        29.92R
HOLLAND        MOCLDY    25  15  66 NW8       29.97R
GRAND RAPIDS   MOCLDY    24  14  65 NW12      29.94R
KALAMAZOO      CLOUDY    29  20  69 NW15      29.94R
MARSHALL       CLOUDY    28  21  72 W7        29.91R
MUSKEGON       CLOUDY    24  13  62 NW10      29.96R
$$
MIZ016>042-041400-
NORTHERN LOWER MICHIGAN

CITY           SKY/WX    TMP DP  RH WIND       PRES   REMARKS
ALPENA         CLOUDY    17  10  74 NW8       29.85R
BEAVER ISLAND  CLOUDY    11   6  81 NW9       29.89R
BELLAIRE       LGT SNOW  17  11  78 CALM      29.89R
CADILLAC       CLOUDY    18  11  76 W8        29.84R
CHARLEVOIX     CLOUDY    14   8  76 CALM      29.91R
FRANKFORT      MOSUNNY   17   8  68 NW17      29.93R
GAYLORD        LGT SNOW  12   6  77 VRB5      29.81R
GRAYLING       LGT SNOW  16  12  83 W6        29.84R
HARBOR SPRINGS CLOUDY    14   4  63 NW7       29.86R
HOUGHTON LAKE  CLOUDY    17  11  77 W7        29.84R
MANISTEE       MOCLDY    19   9  63 NW17      29.93R
OSCODA         PTCLDY    19  16  90 W5        29.86R
PELLSTON       CLOUDY    13   4  67 NW13      29.87R WCI  -2
TRAVERSE CITY  LGT SNOW  19  12  74 W12       29.88R
$$
MIZ007>008-015-041400-
EASTERN UPPER MICHIGAN

CITY           SKY/WX    TMP DP  RH WIND       PRES   REMARKS
KINROSS        CLOUDY    10   5  79 W16G25    29.82R WCI  -7
MACKINAC ISLAN CLOUDY    12   5  73 W10       29.85R WCI  -2
NEWBERRY       CLOUDY     8   4  83 NW8       29.85R FOG
S. S. MARIE    CLOUDY     9   3  77 W10       29.82R WCI  -5
$$
MIZ004>006-011>014-085-041400-
CENTRAL UPPER MICHIGAN

CITY           SKY/WX    TMP DP  RH WIND       PRES   REMARKS
MANISTIQUE     LGT SNOW  10   7  87 NW8       29.88R
ESCANABA       PTCLDY     7  -2  66 NW3       29.93R
MENOMINEE      CLEAR      9  -6  52 NW8       29.95R
SAWYER-GWINN   PTCLDY     1  -4  78 CALM      29.84R
$$
MIZ001>003-009>011-084-041400-
WESTERN UPPER MICHIGAN

CITY           SKY/WX    TMP DP  RH WIND       PRES   REMARKS
IRON MOUNTAIN  CLEAR      2  -7  66 W9        29.88R
HOUGHTON       MOCLDY     0  -5  79 NW17G24   29.85R WCI -21
COPPER HARBOR    N/A      2  -7  66 N21G32    29.88R WCI -20
IRONWOOD       CLEAR     -4  -9  77 W14       29.93R WCI -24
$$

ABBREVIATIONS USED IN REMARKS
   TC - TEMPERATURE IN CELSIUS
  WCI - WIND CHILL INDEX
   HX - HEAT INDEX
  VSB - VISIBILITY



USA.gov is the U.S. government's official web portal to all federal, state and local government web resources and services.